| time (UTC) | temp C | wind direction | speed KPH | gust KPH | rain 1hr cm | rain 24hr cm | rain mn cm | humidity % | barometer mb |
| 20260510055151 | 24 | 153 | 1.6 | 11.3 | 0.00 | 0.33 | 0.00 | 89 | 1010.9 |
| 20260510054647 | 24 | 0 | 3.2 | 11.3 | 0.00 | 0.33 | 0.00 | 89 | 1010.9 |
| 20260510054420 | 24 | 170 | 3.2 | 9.7 | 0.00 | 0.33 | 0.00 | 89 | 1010.9 |
| 20260510053647 | 24 | 0 | 3.2 | 12.9 | 0.00 | 0.33 | 0.00 | 89 | 1010.9 |
| 20260510053141 | 24 | 0 | 3.2 | 12.9 | 0.00 | 0.33 | 0.00 | 89 | 1010.9 |
| 20260510052641 | 24 | 0 | 1.6 | 9.7 | 0.00 | 0.33 | 0.00 | 89 | 1011.0 |
| 20260510052411 | 24 | 0 | 1.6 | 14.5 | 0.00 | 0.33 | 0.00 | 89 | 1011.1 |
| 20260510051641 | 24 | 0 | 1.6 | 14.5 | 0.00 | 0.33 | 0.00 | 89 | 1011.1 |
| 20260510051139 | 24 | 0 | 3.2 | 8.0 | 0.00 | 0.33 | 0.00 | 89 | 1011.1 |
| 20260510050639 | 24 | 177 | 3.2 | 8.0 | 0.00 | 0.33 | 0.00 | 89 | 1011.1 |
| 20260510050138 | 24 | 0 | 3.2 | 12.9 | 0.00 | 0.33 | 0.00 | 89 | 1011.1 |
| 20260510045639 | 24 | 0 | 3.2 | 12.9 | 0.00 | 0.33 | 0.33 | 89 | 1011.0 |
| 20260510045140 | 24 | 0 | 4.8 | 12.9 | 0.00 | 0.33 | 0.33 | 89 | 1011.1 |
| 20260510044638 | 24 | 0 | 3.2 | 12.9 | 0.00 | 0.33 | 0.33 | 89 | 1011.2 |
| 20260510044138 | 24 | 0 | 3.2 | 9.7 | 0.00 | 0.33 | 0.33 | 89 | 1011.3 |
| 20260510043641 | 24 | 0 | 3.2 | 11.3 | 0.00 | 0.33 | 0.33 | 89 | 1011.3 |
| 20260510043131 | 24 | 148 | 1.6 | 11.3 | 0.00 | 0.33 | 0.33 | 89 | 1011.4 |
| 20260510042905 | 24 | 152 | 1.6 | 8.0 | 0.00 | 0.33 | 0.33 | 89 | 1011.5 |
| 20260510042132 | 24 | 0 | 0.0 | 8.0 | 0.00 | 0.33 | 0.33 | 89 | 1011.6 |
| 20260510041632 | 24 | 161 | 0.0 | 8.0 | 0.00 | 0.33 | 0.33 | 89 | 1011.4 |
| 20260510041132 | 24 | 161 | 1.6 | 8.0 | 0.00 | 0.33 | 0.33 | 89 | 1011.2 |
| 20260510040632 | 24 | 0 | 3.2 | 8.0 | 0.00 | 0.33 | 0.33 | 89 | 1011.1 |
| 20260510040132 | 24 | 0 | 3.2 | 8.0 | 0.00 | 0.33 | 0.33 | 89 | 1011.0 |
| 20260510035635 | 24 | 0 | 1.6 | 9.7 | 0.00 | 0.33 | 0.33 | 89 | 1011.1 |
| 20260510035134 | 24 | 0 | 1.6 | 9.7 | 0.00 | 0.33 | 0.33 | 89 | 1011.2 |
| 20260510034630 | 24 | 0 | 1.6 | 9.7 | 0.00 | 0.33 | 0.33 | 89 | 1011.2 |
| 20260510034130 | 24 | 165 | 1.6 | 9.7 | 0.00 | 0.33 | 0.33 | 89 | 1011.2 |
| 20260510033630 | 23 | 170 | 1.6 | 12.9 | 0.00 | 0.33 | 0.33 | 88 | 1011.4 |
| 20260510033131 | 23 | 74 | 1.6 | 12.9 | 0.00 | 0.33 | 0.33 | 88 | 1011.4 |
| 20260510032631 | 23 | 60 | 3.2 | 12.9 | 0.00 | 0.33 | 0.33 | 88 | 1011.3 |
| 20260510032130 | 23 | 152 | 3.2 | 12.9 | 0.00 | 0.33 | 0.33 | 88 | 1011.4 |
| 20260510031629 | 23 | 143 | 1.6 | 9.7 | 0.00 | 0.33 | 0.33 | 88 | 1011.4 |
| 20260510031401 | 23 | 103 | 1.6 | 8.0 | 0.00 | 0.33 | 0.33 | 87 | 1011.4 |
| 20260510030629 | 23 | 123 | 1.6 | 4.8 | 0.00 | 0.33 | 0.33 | 87 | 1011.4 |
| 20260510030125 | 23 | 137 | 0.0 | 4.8 | 0.00 | 0.33 | 0.33 | 87 | 1011.2 |
| 20260510025627 | 23 | 139 | 0.0 | 3.2 | 0.00 | 0.33 | 0.33 | 87 | 1011.1 |
| 20260510025127 | 23 | 139 | 0.0 | 1.6 | 0.00 | 0.33 | 0.33 | 87 | 1011.0 |
| 20260510024630 | 23 | 139 | 1.6 | 6.4 | 0.00 | 0.33 | 0.33 | 86 | 1010.8 |
| 20260510024125 | 23 | 139 | 1.6 | 6.4 | 0.00 | 0.33 | 0.33 | 86 | 1010.7 |
| 20260510023624 | 23 | 137 | 0.0 | 4.8 | 0.00 | 0.33 | 0.33 | 86 | 1010.4 |
| 20260510023124 | 23 | 135 | 1.6 | 4.8 | 0.00 | 0.33 | 0.33 | 86 | 1010.4 |
| 20260510022625 | 23 | 173 | 0.0 | 3.2 | 0.00 | 0.33 | 0.33 | 86 | 1010.3 |
| 20260510022126 | 23 | 212 | 0.0 | 1.6 | 0.00 | 0.33 | 0.33 | 86 | 1010.1 |
| 20260510021623 | 23 | 212 | 0.0 | 1.6 | 0.00 | 0.33 | 0.33 | 85 | 1009.8 |
| 20260510021353 | 23 | 212 | 0.0 | 1.6 | 0.00 | 0.33 | 0.33 | 86 | 1009.8 |
| 20260510020624 | 23 | 212 | 0.0 | 1.6 | 0.00 | 0.33 | 0.33 | 85 | 1009.7 |
| 20260510020122 | 23 | 212 | 0.0 | 1.6 | 0.00 | 0.33 | 0.33 | 85 | 1009.5 |
| 20260510015620 | 23 | 212 | 0.0 | 1.6 | 0.00 | 0.33 | 0.33 | 85 | 1009.4 |
| 20260510015118 | 23 | 212 | 0.0 | 3.2 | 0.00 | 0.33 | 0.33 | 85 | 1009.2 |
| 20260510014616 | 23 | 212 | 0.0 | 3.2 | 0.00 | 0.33 | 0.33 | 85 | 1009.0 |
| 20260510014115 | 23 | 212 | 0.0 | 3.2 | 0.03 | 0.33 | 0.33 | 84 | 1009.0 |
| 20260510013615 | 23 | 212 | 0.0 | 3.2 | 0.03 | 0.33 | 0.33 | 84 | 1008.8 |
| 20260510013115 | 23 | 212 | 0.0 | 3.2 | 0.03 | 0.33 | 0.33 | 84 | 1008.7 |
| 20260510012843 | 24 | 212 | 0.0 | 3.2 | 0.03 | 0.33 | 0.33 | 84 | 1008.7 |
| 20260510012111 | 24 | 212 | 0.0 | 3.2 | 0.03 | 0.33 | 0.33 | 83 | 1008.7 |
| 20260510011610 | 24 | 212 | 0.0 | 3.2 | 0.03 | 0.33 | 0.33 | 83 | 1008.6 |
| 20260510011110 | 24 | 212 | 0.0 | 3.2 | 0.03 | 0.33 | 0.33 | 82 | 1008.5 |
| 20260510010610 | 24 | 212 | 1.6 | 3.2 | 0.03 | 0.33 | 0.33 | 82 | 1008.5 |
| 20260510010112 | 24 | 212 | 0.0 | 3.2 | 0.05 | 0.33 | 0.33 | 81 | 1008.3 |
| 20260510005611 | 25 | 213 | 0.0 | 1.6 | 0.05 | 0.33 | 0.33 | 79 | 1008.0 |
| 20260510005108 | 25 | 213 | 0.0 | 1.6 | 0.08 | 0.33 | 0.33 | 79 | 1007.8 |
| 20260510004609 | 25 | 213 | 0.0 | 1.6 | 0.15 | 0.33 | 0.33 | 79 | 1007.8 |
| 20260510004108 | 25 | 213 | 0.0 | 1.6 | 0.30 | 0.30 | 0.30 | 78 | 1007.9 |
| 20260510003603 | 26 | 214 | 0.0 | 1.6 | 0.30 | 0.30 | 0.30 | 78 | 1008.1 |
| 20260510003105 | 26 | 214 | 0.0 | 12.9 | 0.30 | 0.30 | 0.30 | 78 | 1008.2 |
| 20260510002834 | 26 | 214 | 1.6 | 12.9 | 0.30 | 0.30 | 0.30 | 78 | 1008.0 |
| 20260510002104 | 27 | 214 | 3.2 | 12.9 | 0.30 | 0.30 | 0.30 | 78 | 1008.4 |
| 20260510001829 | 27 | 0 | 3.2 | 12.9 | 0.30 | 0.30 | 0.30 | 78 | 1008.3 |
| 20260510001101 | 28 | 0 | 1.6 | 9.7 | 0.30 | 0.30 | 0.30 | 78 | 1008.4 |
| 20260510000600 | 28 | 0 | 0.0 | 3.2 | 0.30 | 0.30 | 0.30 | 76 | 1007.9 |
| 20260510000059 | 28 | 0 | 0.0 | 3.2 | 0.28 | 0.28 | 0.28 | 76 | 1008.0 |
| 20260509235600 | 29 | 0 | 1.6 | 3.2 | 0.28 | 0.28 | 0.28 | 76 | 1008.1 |
| 20260509235058 | 30 | 0 | 1.6 | 3.2 | 0.25 | 0.25 | 0.25 | 75 | 1007.5 |
| 20260509234558 | 30 | 150 | 0.0 | 6.4 | 0.18 | 0.18 | 0.18 | 73 | 1007.6 |
| 20260509234057 | 30 | 152 | 0.0 | 6.4 | 0.00 | 0.00 | 0.00 | 70 | 1007.7 |
| 20260509233553 | 30 | 152 | 1.6 | 6.4 | 0.00 | 0.00 | 0.00 | 68 | 1007.5 |
| 20260509233051 | 30 | 146 | 1.6 | 8.0 | 0.00 | 0.00 | 0.00 | 66 | 1007.4 |
| 20260509232554 | 30 | 153 | 1.6 | 8.0 | 0.00 | 0.00 | 0.00 | 67 | 1007.4 |
| 20260509232053 | 30 | 141 | 1.6 | 6.4 | 0.00 | 0.00 | 0.00 | 66 | 1007.4 |
| 20260509231546 | 30 | 161 | 1.6 | 6.4 | 0.00 | 0.00 | 0.00 | 66 | 1007.3 |
| 20260509231046 | 30 | 187 | 0.0 | 4.8 | 0.00 | 0.00 | 0.00 | 65 | 1007.4 |
| 20260509230543 | 30 | 190 | 1.6 | 9.7 | 0.00 | 0.00 | 0.00 | 65 | 1007.5 |
| 20260509230316 | 30 | 186 | 1.6 | 9.7 | 0.00 | 0.00 | 0.00 | 65 | 1007.4 |
| 20260509225815 | 30 | 123 | 0.0 | 4.8 | 0.00 | 0.00 | 0.00 | 67 | 1007.1 |
| 20260509225045 | 31 | 260 | 0.0 | 1.6 | 0.00 | 0.00 | 0.00 | 67 | 1007.1 |
| 20260509224814 | 31 | 260 | 0.0 | 3.2 | 0.00 | 0.00 | 0.00 | 69 | 1007.1 |
| 20260509224044 | 31 | 260 | 0.0 | 3.2 | 0.00 | 0.00 | 0.00 | 69 | 1007.1 |
| 20260509223545 | 31 | 305 | 0.0 | 3.2 | 0.00 | 0.00 | 0.00 | 66 | 1007.1 |
| 20260509223045 | 31 | 305 | 1.6 | 3.2 | 0.00 | 0.00 | 0.00 | 68 | 1007.0 |
| 20260509222544 | 31 | 305 | 1.6 | 3.2 | 0.00 | 0.00 | 0.00 | 67 | 1007.0 |
| 20260509222042 | 31 | 336 | 0.0 | 3.2 | 0.00 | 0.00 | 0.00 | 68 | 1007.0 |
| 20260509221541 | 31 | 336 | 0.0 | 3.2 | 0.00 | 0.00 | 0.00 | 66 | 1007.0 |
| 20260509221042 | 31 | 5 | 1.6 | 3.2 | 0.00 | 0.00 | 0.00 | 65 | 1007.0 |
| 20260509220540 | 31 | 265 | 1.6 | 3.2 | 0.00 | 0.00 | 0.00 | 65 | 1007.0 |
| 20260509220040 | 31 | 259 | 0.0 | 3.2 | 0.00 | 0.00 | 0.00 | 66 | 1007.0 |
| 20260509215539 | 31 | 259 | 1.6 | 6.4 | 0.00 | 0.00 | 0.00 | 66 | 1006.9 |
| 20260509215040 | 31 | 259 | 3.2 | 6.4 | 0.00 | 0.00 | 0.00 | 66 | 1007.0 |
| 20260509214540 | 31 | 330 | 3.2 | 9.7 | 0.00 | 0.00 | 0.00 | 66 | 1007.0 |
| 20260509214039 | 31 | 355 | 1.6 | 9.7 | 0.00 | 0.00 | 0.00 | 67 | 1007.0 |
| 20260509213810 | 31 | 328 | 3.2 | 6.4 | 0.00 | 0.00 | 0.00 | 66 | 1007.0 |
| 20260509213034 | 31 | 327 | 3.2 | 9.7 | 0.00 | 0.00 | 0.00 | 68 | 1007.0 |
| 20260509212806 | 31 | 35 | 1.6 | 9.7 | 0.00 | 0.00 | 0.00 | 66 | 1007.0 |
| 20260509212035 | 31 | 307 | 1.6 | 9.7 | 0.00 | 0.00 | 0.00 | 65 | 1007.0 |
| 20260509211534 | 31 | 279 | 1.6 | 9.7 | 0.00 | 0.00 | 0.00 | 66 | 1007.1 |
| 20260509211303 | 31 | 18 | 1.6 | 6.4 | 0.00 | 0.00 | 0.00 | 65 | 1007.2 |
| 20260509210802 | 31 | 41 | 1.6 | 6.4 | 0.00 | 0.00 | 0.00 | 67 | 1007.3 |
| 20260509210032 | 31 | 305 | 1.6 | 6.4 | 0.00 | 0.00 | 0.00 | 64 | 1007.3 |
| 20260509205528 | 32 | 300 | 1.6 | 6.4 | 0.00 | 0.00 | 0.00 | 65 | 1007.4 |
| 20260509205027 | 32 | 348 | 1.6 | 6.4 | 0.00 | 0.00 | 0.00 | 66 | 1007.5 |
| 20260509204800 | 32 | 17 | 1.6 | 6.4 | 0.00 | 0.00 | 0.00 | 64 | 1007.5 |
| 20260509204258 | 31 | 228 | 1.6 | 6.4 | 0.00 | 0.00 | 0.00 | 62 | 1007.6 |
| 20260509203527 | 31 | 261 | 0.0 | 4.8 | 0.00 | 0.00 | 0.00 | 65 | 1007.6 |
| 20260509203026 | 31 | 261 | 0.0 | 6.4 | 0.00 | 0.00 | 0.00 | 65 | 1007.7 |
| 20260509202528 | 31 | 261 | 1.6 | 6.4 | 0.00 | 0.00 | 0.00 | 64 | 1007.7 |
| 20260509202022 | 31 | 263 | 1.6 | 6.4 | 0.00 | 0.00 | 0.00 | 64 | 1007.8 |
| 20260509201522 | 31 | 244 | 3.2 | 6.4 | 0.00 | 0.00 | 0.00 | 64 | 1007.8 |
| 20260509201018 | 31 | 323 | 1.6 | 6.4 | 0.00 | 0.00 | 0.00 | 64 | 1007.8 |
| 20260509200517 | 31 | 327 | 1.6 | 4.8 | 0.00 | 0.00 | 0.00 | 69 | 1007.9 |
| 20260509200021 | 31 | 217 | 0.0 | 6.4 | 0.00 | 0.00 | 0.00 | 65 | 1008.0 |
| 20260509200017 | 31 | 221 | 1.6 | 6.4 | 0.00 | 0.00 | 0.00 | 64 | 1007.9 |
| 20260509195016 | 31 | 217 | 1.6 | 6.4 | 0.00 | 0.00 | 0.00 | 65 | 1008.0 |
| 20260509194517 | 31 | 210 | 1.6 | 6.4 | 0.00 | 0.00 | 0.00 | 66 | 1008.1 |
| 20260509194018 | 31 | 254 | 1.6 | 6.4 | 0.00 | 0.00 | 0.00 | 67 | 1008.2 |
| 20260509193516 | 31 | 290 | 1.6 | 6.4 | 0.00 | 0.00 | 0.00 | 67 | 1008.2 |
| 20260509193014 | 30 | 17 | 1.6 | 6.4 | 0.00 | 0.00 | 0.00 | 69 | 1008.2 |
| 20260509192517 | 30 | 17 | 1.6 | 6.4 | 0.00 | 0.00 | 0.00 | 67 | 1008.1 |
| 20260509192017 | 30 | 320 | 1.6 | 6.4 | 0.00 | 0.00 | 0.00 | 71 | 1008.3 |
| 20260509191513 | 30 | 72 | 1.6 | 6.4 | 0.00 | 0.00 | 0.00 | 71 | 1008.3 |
| 20260509191245 | 30 | 40 | 1.6 | 6.4 | 0.00 | 0.00 | 0.00 | 73 | 1008.4 |
| 20260509190745 | 30 | 16 | 1.6 | 4.8 | 0.00 | 0.00 | 0.00 | 72 | 1008.4 |
| 20260509190014 | 30 | 267 | 1.6 | 4.8 | 0.00 | 0.00 | 0.00 | 73 | 1008.4 |
| 20260509185509 | 30 | 11 | 1.6 | 4.8 | 0.00 | 0.00 | 0.00 | 74 | 1008.4 |
| 20260509185010 | 30 | 355 | 1.6 | 6.4 | 0.00 | 0.00 | 0.00 | 71 | 1008.5 |
| 20260509184739 | 30 | 305 | 1.6 | 6.4 | 0.00 | 0.00 | 0.00 | 75 | 1008.5 |
| 20260509184237 | 30 | 298 | 1.6 | 6.4 | 0.00 | 0.00 | 0.00 | 74 | 1008.6 |
| 20260509183507 | 29 | 128 | 1.6 | 3.2 | 0.00 | 0.00 | 0.00 | 76 | 1008.6 |
| 20260509183008 | 29 | 128 | 1.6 | 3.2 | 0.00 | 0.00 | 0.00 | 74 | 1008.8 |
| 20260509182739 | 29 | 128 | 1.6 | 8.0 | 0.00 | 0.00 | 0.00 | 75 | 1008.9 |
| 20260509182623 | 29 | 187 | 1.6 | 8.0 | 0.00 | 0.00 | 0.00 | 73 | 1008.9 |
| 20260509182128 | 29 | 188 | 3.2 | 8.0 | 0.00 | 0.00 | 0.00 | 74 | 1009.1 |
| 20260509181010 | 29 | 159 | 1.6 | 8.0 | 0.00 | 0.00 | 0.00 | 74 | 1009.2 |
| 20260509180500 | 29 | 157 | 1.6 | 14.5 | 0.00 | 0.00 | 0.00 | 73 | 1009.4 |
| 20260509180000 | 29 | 123 | 3.2 | 14.5 | 0.00 | 0.00 | 0.00 | 76 | 1009.6 |
| 20260509175500 | 29 | 230 | 3.2 | 14.5 | 0.00 | 0.00 | 0.00 | 76 | 1009.8 |
| 20260509175000 | 29 | 157 | 3.2 | 16.1 | 0.00 | 0.00 | 0.00 | 74 | 1009.7 |
| 20260509174500 | 29 | 94 | 3.2 | 16.1 | 0.00 | 0.00 | 0.00 | 74 | 1009.6 |
| 20260509174000 | 29 | 144 | 4.8 | 16.1 | 0.00 | 0.00 | 0.00 | 76 | 1009.6 |
| 20260509173458 | 28 | 183 | 4.8 | 16.1 | 0.00 | 0.00 | 0.00 | 77 | 1009.7 |
| 20260509172959 | 28 | 165 | 3.2 | 11.3 | 0.00 | 0.00 | 0.00 | 77 | 1009.8 |
| 20260509172728 | 28 | 129 | 1.6 | 8.0 | 0.00 | 0.00 | 0.00 | 80 | 1010.0 |
| 20260509171953 | 28 | 286 | 1.6 | 6.4 | 0.00 | 0.00 | 0.00 | 82 | 1010.1 |
| 20260509171454 | 27 | 166 | 1.6 | 6.4 | 0.00 | 0.00 | 0.00 | 82 | 1010.2 |
| 20260509170951 | 27 | 248 | 1.6 | 6.4 | 0.00 | 0.00 | 0.00 | 83 | 1010.3 |
| 20260509170722 | 27 | 261 | 1.6 | 6.4 | 0.00 | 0.00 | 0.00 | 85 | 1010.2 |
| 20260509165951 | 26 | 244 | 1.6 | 6.4 | 0.00 | 0.00 | 0.00 | 88 | 1010.2 |
| 20260509165449 | 26 | 208 | 1.6 | 6.4 | 0.00 | 0.00 | 0.00 | 90 | 1010.3 |
| 20260509164954 | 25 | 191 | 0.0 | 3.2 | 0.00 | 0.00 | 0.00 | 91 | 1010.3 |
| 20260509164949 | 25 | 192 | 0.0 | 3.2 | 0.00 | 0.00 | 0.00 | 91 | 1010.4 |
| 20260509164219 | 25 | 191 | 1.6 | 3.2 | 0.00 | 0.00 | 0.00 | 91 | 1010.4 |
| 20260509163445 | 25 | 191 | 0.0 | 3.2 | 0.00 | 0.00 | 0.00 | 91 | 1010.3 |
| 20260509162942 | 25 | 191 | 0.0 | 1.6 | 0.00 | 0.00 | 0.00 | 91 | 1010.3 |
| 20260509162446 | 25 | 191 | 0.0 | 1.6 | 0.00 | 0.00 | 0.00 | 91 | 1010.2 |
| 20260509161944 | 25 | 191 | 0.0 | 1.6 | 0.00 | 0.00 | 0.00 | 91 | 1010.3 |
| 20260509161441 | 25 | 191 | 0.0 | 1.6 | 0.00 | 0.00 | 0.00 | 91 | 1010.2 |
| 20260509160944 | 25 | 191 | 0.0 | 1.6 | 0.00 | 0.00 | 0.00 | 91 | 1010.3 |
| 20260509160437 | 25 | 191 | 0.0 | 1.6 | 0.00 | 0.00 | 0.00 | 91 | 1010.2 |
| 20260509155939 | 25 | 191 | 0.0 | 3.2 | 0.00 | 0.00 | 0.00 | 91 | 1010.2 |
| 20260509155436 | 25 | 191 | 0.0 | 3.2 | 0.00 | 0.00 | 0.00 | 91 | 1010.3 |
| 20260509154934 | 25 | 191 | 0.0 | 1.6 | 0.00 | 0.00 | 0.00 | 91 | 1010.3 |
| 20260509154707 | 25 | 191 | 0.0 | 1.6 | 0.00 | 0.00 | 0.00 | 91 | 1010.1 |
| 20260509153935 | 25 | 191 | 0.0 | 1.6 | 0.00 | 0.00 | 0.00 | 91 | 1010.1 |
| 20260509153431 | 25 | 191 | 0.0 | 4.8 | 0.00 | 0.00 | 0.00 | 91 | 1010.0 |
| 20260509152930 | 25 | 191 | 0.0 | 4.8 | 0.00 | 0.00 | 0.00 | 91 | 1010.0 |
| 20260509152431 | 25 | 191 | 0.0 | 4.8 | 0.00 | 0.00 | 0.00 | 91 | 1010.1 |
| 20260509152159 | 25 | 191 | 0.0 | 4.8 | 0.00 | 0.00 | 0.00 | 91 | 1010.1 |
| 20260509151424 | 25 | 191 | 0.0 | 0.0 | 0.00 | 0.00 | 0.00 | 91 | 1010.1 |
| 20260509150922 | 25 | 191 | 0.0 | 0.0 | 0.00 | 0.00 | 0.00 | 91 | 1010.1 |
| 20260509150422 | 25 | 191 | 0.0 | 0.0 | 0.00 | 0.00 | 0.00 | 91 | 1010.2 |
| 20260509150151 | 25 | 191 | 0.0 | 0.0 | 0.00 | 0.00 | 0.00 | 91 | 1010.0 |
| 20260509150036 | 25 | 191 | 0.0 | 1.6 | 0.00 | 0.00 | 0.00 | 91 | 1010.0 |
| 20260509144912 | 25 | 191 | 0.0 | 1.6 | 0.00 | 0.00 | 0.00 | 91 | 1010.0 |
| 20260509144414 | 25 | 191 | 0.0 | 1.6 | 0.00 | 0.00 | 0.00 | 91 | 1010.0 |
| 20260509143914 | 25 | 191 | 0.0 | 1.6 | 0.00 | 0.00 | 0.00 | 91 | 1009.8 |
| 20260509143412 | 25 | 191 | 0.0 | 1.6 | 0.00 | 0.00 | 0.00 | 91 | 1009.7 |
| 20260509142912 | 25 | 194 | 0.0 | 1.6 | 0.00 | 0.00 | 0.00 | 91 | 1009.7 |
| 20260509142645 | 25 | 0 | 0.0 | 1.6 | 0.00 | 0.00 | 0.00 | 91 | 1009.5 |
| 20260509141909 | 25 | 194 | 0.0 | 0.0 | 0.00 | 0.00 | 0.00 | 91 | 1009.6 |
| 20260509141408 | 25 | 194 | 0.0 | 3.2 | 0.00 | 0.00 | 0.00 | 91 | 1009.4 |
| 20260509140904 | 25 | 0 | 0.0 | 3.2 | 0.00 | 0.00 | 0.00 | 91 | 1009.0 |
| 20260509140632 | 25 | 0 | 0.0 | 1.6 | 0.00 | 0.00 | 0.00 | 91 | 1009.0 |
| 20260509140128 | 25 | 0 | 0.0 | 1.6 | 0.00 | 0.00 | 0.00 | 91 | 1009.2 |
| 20260509135400 | 25 | 0 | 0.0 | 3.2 | 0.00 | 0.00 | 0.00 | 91 | 1009.4 |
| 20260509134900 | 25 | 0 | 0.0 | 3.2 | 0.00 | 0.00 | 0.00 | 91 | 1009.4 |
| 20260509134357 | 25 | 0 | 0.0 | 3.2 | 0.00 | 0.00 | 0.00 | 91 | 1009.7 |
| 20260509133857 | 25 | 0 | 0.0 | 3.2 | 0.00 | 0.00 | 0.00 | 91 | 1009.7 |
| 20260509133357 | 25 | 0 | 0.0 | 6.4 | 0.00 | 0.00 | 0.00 | 91 | 1009.9 |
| 20260509132857 | 25 | 0 | 0.0 | 6.4 | 0.00 | 0.00 | 0.00 | 91 | 1010.2 |
| 20260509132355 | 24 | 0 | 0.0 | 6.4 | 0.00 | 0.00 | 0.00 | 91 | 1010.4 |
| 20260509131854 | 24 | 0 | 0.0 | 6.4 | 0.00 | 0.00 | 0.00 | 91 | 1010.6 |
| 20260509131352 | 24 | 116 | 0.0 | 3.2 | 0.00 | 0.00 | 0.00 | 91 | 1010.6 |
| 20260509130854 | 24 | 116 | 0.0 | 1.6 | 0.00 | 0.00 | 0.00 | 91 | 1010.4 |
| 20260509130353 | 24 | 116 | 0.0 | 0.0 | 0.00 | 0.00 | 0.00 | 91 | 1010.2 |
| 20260509125852 | 24 | 116 | 0.0 | 1.6 | 0.00 | 0.00 | 0.00 | 91 | 1010.3 |
| 20260509125353 | 24 | 116 | 0.0 | 1.6 | 0.00 | 0.00 | 0.00 | 91 | 1010.2 |
| 20260509124851 | 24 | 116 | 0.0 | 1.6 | 0.00 | 0.00 | 0.00 | 91 | 1010.2 |
| 20260509124350 | 24 | 116 | 0.0 | 1.6 | 0.00 | 0.00 | 0.00 | 91 | 1010.1 |
| 20260509123846 | 24 | 116 | 0.0 | 1.6 | 0.00 | 0.00 | 0.00 | 91 | 1010.1 |
| 20260509123345 | 24 | 116 | 0.0 | 1.6 | 0.00 | 0.00 | 0.00 | 91 | 1010.1 |
| 20260509122845 | 24 | 116 | 0.0 | 0.0 | 0.00 | 0.00 | 0.00 | 91 | 1010.1 |
| 20260509122342 | 24 | 116 | 0.0 | 1.6 | 0.00 | 0.00 | 0.00 | 91 | 1010.0 |
| 20260509121844 | 24 | 116 | 0.0 | 1.6 | 0.00 | 0.00 | 0.00 | 91 | 1010.1 |
| 20260509121344 | 24 | 116 | 0.0 | 1.6 | 0.00 | 0.00 | 0.00 | 91 | 1010.2 |
| 20260509120840 | 24 | 117 | 0.0 | 1.6 | 0.00 | 0.00 | 0.00 | 91 | 1010.0 |
| 20260509120343 | 24 | 117 | 0.0 | 1.6 | 0.00 | 0.00 | 0.00 | 91 | 1009.9 |
| 20260509115840 | 24 | 117 | 0.0 | 0.0 | 0.00 | 0.00 | 0.00 | 91 | 1009.8 |
| 20260509115341 | 24 | 117 | 0.0 | 0.0 | 0.00 | 0.00 | 0.00 | 91 | 1009.6 |
| 20260509114838 | 24 | 117 | 0.0 | 1.6 | 0.00 | 0.00 | 0.00 | 91 | 1009.7 |
| 20260509114335 | 24 | 117 | 0.0 | 1.6 | 0.00 | 0.00 | 0.00 | 91 | 1009.8 |
| 20260509113834 | 23 | 117 | 0.0 | 1.6 | 0.00 | 0.00 | 0.00 | 91 | 1009.8 |
| 20260509113335 | 23 | 117 | 0.0 | 1.6 | 0.00 | 0.00 | 0.00 | 91 | 1009.9 |
| 20260509112834 | 23 | 117 | 0.0 | 1.6 | 0.00 | 0.00 | 0.00 | 91 | 1010.1 |
| 20260509112334 | 23 | 154 | 0.0 | 0.0 | 0.00 | 0.00 | 0.00 | 91 | 1010.1 |
| 20260509111831 | 23 | 154 | 0.0 | 0.0 | 0.00 | 0.00 | 0.00 | 91 | 1010.0 |
| 20260509111558 | 23 | 154 | 0.0 | 0.0 | 0.00 | 0.00 | 0.00 | 91 | 1009.7 |
| 20260509111059 | 23 | 154 | 0.0 | 0.0 | 0.00 | 0.00 | 0.00 | 91 | 1009.7 |
| 20260509110327 | 23 | 154 | 0.0 | 1.6 | 0.00 | 0.00 | 0.00 | 91 | 1009.7 |
| 20260509105823 | 23 | 154 | 0.0 | 1.6 | 0.00 | 0.00 | 0.00 | 91 | 1009.5 |
| 20260509105323 | 23 | 154 | 0.0 | 3.2 | 0.00 | 0.00 | 0.00 | 91 | 1009.2 |
| 20260509104816 | 23 | 154 | 0.0 | 3.2 | 0.00 | 0.00 | 0.00 | 91 | 1009.2 |
| 20260509104546 | 23 | 154 | 0.0 | 0.0 | 0.00 | 0.00 | 0.00 | 91 | 1009.1 |
| 20260509104430 | 23 | 154 | 0.0 | 0.0 | 0.00 | 0.00 | 0.00 | 91 | 1009.1 |
| 20260509103317 | 23 | 154 | 0.0 | 0.0 | 0.00 | 0.00 | 0.00 | 91 | 1009.1 |
| 20260509103048 | 23 | 154 | 0.0 | 0.0 | 0.00 | 0.00 | 0.00 | 91 | 1009.4 |
| 20260509102312 | 23 | 154 | 0.0 | 0.0 | 0.00 | 0.00 | 0.00 | 91 | 1009.4 |
| 20260509101812 | 23 | 154 | 0.0 | 0.0 | 0.00 | 0.00 | 0.00 | 91 | 1009.2 |
| 20260509101542 | 23 | 154 | 0.0 | 0.0 | 0.00 | 0.00 | 0.00 | 91 | 1009.1 |
| 20260509100811 | 23 | 154 | 0.0 | 0.0 | 0.00 | 0.00 | 0.00 | 90 | 1009.1 |
| 20260509100309 | 23 | 154 | 0.0 | 0.0 | 0.00 | 0.00 | 0.00 | 90 | 1009.2 |
| 20260509095809 | 23 | 154 | 0.0 | 0.0 | 0.00 | 0.00 | 0.00 | 90 | 1009.0 |
| 20260509095307 | 23 | 154 | 0.0 | 0.0 | 0.00 | 0.00 | 0.00 | 90 | 1008.9 |
| 20260509094807 | 23 | 154 | 0.0 | 0.0 | 0.00 | 0.00 | 0.00 | 90 | 1009.0 |
| 20260509094304 | 23 | 154 | 0.0 | 0.0 | 0.00 | 0.00 | 0.00 | 90 | 1009.1 |
| 20260509093806 | 23 | 154 | 0.0 | 0.0 | 0.00 | 0.00 | 0.00 | 90 | 1008.9 |
| 20260509093535 | 23 | 154 | 0.0 | 0.0 | 0.00 | 0.00 | 0.00 | 90 | 1008.9 |
| 20260509092801 | 24 | 154 | 0.0 | 0.0 | 0.00 | 0.00 | 0.00 | 90 | 1008.9 |
| 20260509092300 | 24 | 154 | 0.0 | 0.0 | 0.00 | 0.00 | 0.00 | 91 | 1009.0 |
| 20260509091801 | 24 | 154 | 0.0 | 0.0 | 0.00 | 0.00 | 0.00 | 91 | 1009.0 |
| 20260509091257 | 24 | 154 | 0.0 | 0.0 | 0.00 | 0.00 | 0.00 | 91 | 1009.0 |
| 20260509090759 | 24 | 154 | 0.0 | 0.0 | 0.00 | 0.00 | 0.00 | 91 | 1009.2 |
| 20260509090300 | 24 | 154 | 0.0 | 0.0 | 0.00 | 0.00 | 0.00 | 91 | 1009.2 |
| 20260509085758 | 24 | 154 | 0.0 | 0.0 | 0.00 | 0.00 | 0.00 | 91 | 1009.2 |
| 20260509085258 | 24 | 154 | 0.0 | 0.0 | 0.00 | 0.00 | 0.00 | 90 | 1009.2 |
| 20260509084758 | 24 | 154 | 0.0 | 0.0 | 0.00 | 0.00 | 0.00 | 90 | 1009.1 |
| 20260509084256 | 24 | 154 | 0.0 | 0.0 | 0.00 | 0.00 | 0.00 | 90 | 1008.9 |
| 20260509084025 | 24 | 154 | 0.0 | 4.8 | 0.00 | 0.00 | 0.00 | 90 | 1008.9 |
| 20260509083255 | 24 | 154 | 0.0 | 4.8 | 0.00 | 0.00 | 0.00 | 90 | 1008.8 |
| 20260509082757 | 24 | 154 | 0.0 | 4.8 | 0.00 | 0.00 | 0.00 | 90 | 1008.9 |
| 20260509082255 | 24 | 155 | 0.0 | 4.8 | 0.00 | 0.00 | 0.00 | 90 | 1009.0 |
| 20260509081753 | 24 | 145 | 0.0 | 3.2 | 0.00 | 0.00 | 0.00 | 90 | 1009.1 |
| 20260509081252 | 24 | 145 | 0.0 | 3.2 | 0.00 | 0.00 | 0.00 | 90 | 1009.2 |
| 20260509080747 | 24 | 145 | 0.0 | 11.3 | 0.00 | 0.00 | 0.00 | 90 | 1009.1 |
| 20260509080245 | 24 | 145 | 0.0 | 11.3 | 0.00 | 0.00 | 0.00 | 90 | 1009.0 |
| 20260509075741 | 24 | 145 | 1.6 | 11.3 | 0.00 | 0.00 | 0.00 | 90 | 1008.9 |
| 20260509075238 | 24 | 202 | 1.6 | 11.3 | 0.00 | 0.00 | 0.00 | 90 | 1008.9 |
| 20260509074734 | 24 | 138 | 1.6 | 8.0 | 0.00 | 0.00 | 0.00 | 90 | 1008.8 |
| 20260509074233 | 24 | 150 | 1.6 | 4.8 | 0.00 | 0.00 | 0.00 | 90 | 1008.9 |
| 20260509073732 | 24 | 150 | 0.0 | 3.2 | 0.00 | 0.00 | 0.00 | 90 | 1009.1 |
| 20260509073500 | 24 | 155 | 0.0 | 3.2 | 0.00 | 0.00 | 0.00 | 90 | 1009.4 |
| 20260509072728 | 24 | 155 | 0.0 | 3.2 | 0.00 | 0.00 | 0.00 | 90 | 1009.4 |
| 20260509072457 | 24 | 155 | 0.0 | 3.2 | 0.00 | 0.00 | 0.00 | 90 | 1009.4 |
| 20260509071724 | 24 | 155 | 0.0 | 3.2 | 0.00 | 0.00 | 0.00 | 90 | 1009.5 |
| 20260509071221 | 24 | 156 | 0.0 | 3.2 | 0.00 | 0.00 | 0.00 | 90 | 1009.6 |
| 20260509070715 | 24 | 156 | 0.0 | 3.2 | 0.00 | 0.00 | 0.00 | 90 | 1009.8 |
| 20260509070215 | 24 | 156 | 0.0 | 3.2 | 0.00 | 0.00 | 0.00 | 90 | 1009.7 |
| 20260509065715 | 24 | 156 | 0.0 | 1.6 | 0.00 | 0.00 | 0.00 | 90 | 1009.7 |
| 20260509065215 | 24 | 156 | 0.0 | 1.6 | 0.00 | 0.00 | 0.00 | 90 | 1009.7 |
| 20260509064713 | 24 | 156 | 0.0 | 1.6 | 0.00 | 0.00 | 0.00 | 90 | 1009.7 |
| 20260509064206 | 24 | 156 | 0.0 | 1.6 | 0.00 | 0.00 | 0.00 | 90 | 1009.6 |
| 20260509063705 | 24 | 156 | 0.0 | 3.2 | 0.00 | 0.00 | 0.00 | 90 | 1009.5 |
| 20260509063205 | 24 | 156 | 0.0 | 3.2 | 0.00 | 0.00 | 0.00 | 90 | 1009.5 |
| 20260509062704 | 24 | 156 | 0.0 | 8.0 | 0.00 | 0.00 | 0.00 | 90 | 1009.6 |
| 20260509062202 | 24 | 156 | 0.0 | 8.0 | 0.00 | 0.00 | 0.00 | 90 | 1009.7 |
| 20260509061702 | 24 | 156 | 1.6 | 8.0 | 0.00 | 0.00 | 0.00 | 90 | 1009.6 |
| 20260509061201 | 24 | 156 | 1.6 | 8.0 | 0.00 | 0.00 | 0.00 | 90 | 1009.6 |
| 20260509060659 | 24 | 165 | 0.0 | 6.4 | 0.00 | 0.00 | 0.00 | 90 | 1009.7 |
| 20260509060200 | 24 | 169 | 0.0 | 3.2 | 0.00 | 0.00 | 0.00 | 90 | 1009.8 |
| 20260509055932 | 24 | 169 | 0.0 | 3.2 | 0.00 | 0.00 | 0.00 | 90 | 1009.9 |